Regional Weather Roundup
Issued by NWS Glasgow, MT

Home | Current Version | Previous Version | Text Only | Print | Product List | Glossary On
Versions: 1 2 3 4 5 6 7 8 9 10 11 12 13 14 15 16 17 18 19 20 21 22 23 24 25 26 27 28 29 30 31 32 33 34 35 36 37 38 39 40 41 42 43 44 45 46 47 48 49 50
817
ASUS45 KGGW 091015
RWRGGW
HOURLY REGIONAL WEATHER ROUNDUP FOR NORTHEAST MONTANA
NATIONAL WEATHER SERVICE GLASGOW MONTANA
300 AM MST TUE FEB 09 2016

NOTE: "FAIR" INDICATES FEW OR NO CLOUDS BELOW 12,000 FEET WITH NO
SIGNIFICANT WEATHER AND/OR OBSTRUCTIONS TO VISISBILITY.

NORTHEAST MONTANA


CITY           SKY/WX    TMP DP  RH WIND       PRES   REMARKS
GLASGOW        CLOUDY    30  24  78 N9        30.25S
PLENTYWOOD       N/A     29  24  82 W3          N/A
WOLF POINT     CLOUDY    29  23  78 SW7       30.24S
JORDAN           N/A     31  28  89 W8        30.25S
SIDNEY         CLOUDY    28  18  64 S6        30.21F
GLENDIVE       CLOUDY    30  23  74 NW5       30.24S
MALTA            N/A     32  30  92 SW5         N/A
SCOBEY           N/A     30  18  60 CALM      30.17S

FORT PECK REPORTS


CITY           SKY/WX    TMP DP  RH WIND       PRES   REMARKS
FORT PECK        N/A     32  28  85 NW5         N/A
THE PINES        N/A     35  28  75 N3          N/A

SOUTHEAST MONTANA


CITY           SKY/WX    TMP DP  RH WIND       PRES   REMARKS
BILLINGS       CLOUDY    37  27  67 SW13      30.31R
MILES CITY     CLOUDY    28  24  85 W3        30.25R
BAKER          CLOUDY    23  17  78 CALM      30.20F
LIVINGSTON     CLOUDY    45  25  45 SW21      30.40S

CENTRAL MONTANA


CITY           SKY/WX    TMP DP  RH WIND       PRES   REMARKS
HAVRE          MOCLDY    34  29  82 SW12      30.28S
LEWISTOWN      CLOUDY    37  25  61 W8        30.31S
GREAT FALLS    CLEAR     40  29  64 SW16      30.32S
CUT BANK       PTCLDY    39  29  67 W15       30.29S
HELENA         CLOUDY    29  26  89 CALM      30.42S
BUTTE          CLOUDY    15  13  91 CALM      30.51R FOG
BOZEMAN        CLOUDY    25  21  85 S6        30.47R

WESTERN MONTANA


CITY           SKY/WX    TMP DP  RH WIND       PRES   REMARKS
MISSOULA       CLEAR     24  22  91 CALM      30.56R
KALISPELL      NOT AVBL

NORTH DAKOTA


CITY           SKY/WX    TMP DP  RH WIND       PRES   REMARKS
WILLISTON      CLOUDY    29  21  72 S3        30.21F
DICKINSON      CLOUDY    25  17  72 SE7       30.18F
MINOT          CLOUDY    26  13  57 SW5       30.22F
BISMARCK       CLOUDY    25  10  53 NW3       30.27F

SOUTHERN SASKATCHEWAN


CITY           SKY/WX    TMP DP  RH WIND       PRES   REMARKS
REGINA         MOCLDY    23  21  93 CALM      30.18R
ESTEVAN        MOCLDY    23  19  86 S7        30.18F
SWIFT CURRENT  CLOUDY    32  27  80 W12       30.20S





USA.gov is the U.S. government's official web portal to all federal, state and local government web resources and services.